Tracking 35275 objects as of 8-Sep-2026
HD Live streaming from Space Station
objects crossing your sky now

STARLINK-11443

Track STARLINK-11443 now!
10-day predictions
STARLINK-11443 is classified as:


NORAD ID: 62512
Int'l Code: 2025-004B
Launch date: January 8, 2025
Source: United States (US)
Launch site: AIR FORCE EASTERN TEST RANGE (AFETR)
Your satellite tracking list
Your tracking list is empty




NASA's NSSDC Master Catalog

Two Line Element Set (TLE):
1 62512U 25004B   26250.85433670  .00225664  00000-0  17102-2 0  9996
2 62512  43.0018  53.1215 0002713 280.5713  79.4849 15.70902855 95850
Source of the keplerian elements: AFSPC